カタログに戻る

SCOUT B DEB

運用中UNKNOWN
NORAD 28265·DEBRIS·🇺🇸 United States

打ち上げ Jun 10, 1966 から Wallops Flight Facility

Loading…

次のパス (今後24時間)

TLE

最新Source: Space-Track

元期: Aug 31, 2026, 15:08 UTC

1 28265U 66052E   26243.63059092 -.00000458  00000-0 -47968-3 0  9999
2 28265  40.8500 225.6816 1952620 194.9681 158.4051 10.69499121 81190

AllMySatでSCOUT B DEBをリアルタイム追跡

Download on the App Store